Location: Gellin
(53.4498°N, 14.3207°E)
Time: 21:21:10
(UTC+00:00)

SJ-6B - Pass Details

Date: 03 March 2021
Orbit: 509 x 581 km, 97.6° (Epoch: 12 April)

Event Time Altitude Azimuth Distance (km) Brightness Sun altitude
Exits shadow 17:47:24 - 129° (SE) 2,019 5.2 -10.1°
Reaches altitude 10° 17:47:46 10° 127° (SE) 1,887 5.0 -10.2°
Maximum altitude 17:51:22 31° 65° (ENE) 1,025 3.7 -10.7°
Drops below altitude 10° 17:54:56 10° 3° (N) 1,871 5.5 -11.3°
Sets 17:57:14 0° 353° (N) 2,760 6.5 -11.6°
